Regional Weather Roundup
Issued by NWS

Home | Current Version | Previous Version | Text Only | Print | Product List | Glossary Off
Versions: 1 2 3 4 5 6 7 8 9 10 11 12 13 14 15 16 17 18 19 20 21 22 23 24 25 26 27 28 29 30 31 32 33 34 35 36 37 38 39 40 41 42 43 44 45 46 47 48 49 50

000
ASUS43 KOAX 301810
RWRNE

WEATHER ROUNDUP FOR NEBRASKA
NATIONAL WEATHER SERVICE OMAHA NE
100 PM CDT THU OCT 30 2014

NOTES: SATELLITE DATA IS BEING USED TO AUGMENT CLOUD COVER ABOVE
       12000 FEET.
       "FAIR" INDICATES FEW OR NO CLOUDS BELOW 12,000 FEET WITH NO
       SIGNIFICANT WEATHER AND/OR OBSTRUCTIONS TO VISIBILITY.

  * THESE STATIONS DO NOT REPORT WEATHER SUCH AS RAIN...SNOW OR FOG.

NEZ001>004-019>022-054>056-301900-
NEBRASKA PANHANDLE

CITY           SKY/WX    TMP DP  RH WIND       PRES   REMARKS
SCOTTSBLUFF    SUNNY     58  33  39 W10       30.34F
6HR MIN TEMP:  32; 6HR MAX TEMP:  58;

ALLIANCE       SUNNY     59  33  37 N16G23    30.31S
6HR MIN TEMP:  29; 6HR MAX TEMP:  59; 6HR PCP: TRACE;

CHADRON        SUNNY     59  34  39 NW14      30.31S
6HR MIN TEMP:  32; 6HR MAX TEMP:  59;

KIMBALL        SUNNY     57  29  34 N8        30.34F
SIDNEY         SUNNY     59  31  34 N16       30.34F
6HR MIN TEMP:  35; 6HR MAX TEMP:  59;

$$

NEZ057>060-069>072-079>082-301900-
SOUTHWEST NEBRASKA

CITY           SKY/WX    TMP DP  RH WIND       PRES   REMARKS
NORTH PLATTE   SUNNY     63  31  30 NW21G28   30.26S
6HR MIN TEMP:  30; 6HR MAX TEMP:  63;

IMPERIAL       SUNNY     62  31  31 N17       30.30F
6HR MIN TEMP:  39; 6HR MAX TEMP:  62;

LEXINGTON      SUNNY     64  32  30 NW26G35   30.23S
MCCOOK         SUNNY     66  30  26 N20G28    30.26F
6HR MIN TEMP:  38; 6HR MAX TEMP:  66;

OGALLALA       SUNNY     62  33  33 N14G20    30.30S
$$

NEZ005>010-023>029-035>040-094-301900-
NORTH CENTRAL NEBRASKA

CITY           SKY/WX    TMP DP  RH WIND       PRES   REMARKS
VALENTINE      SUNNY     55  34  45 NW15      30.27R
6HR MIN TEMP:  36; 6HR MAX TEMP:  55;

AINSWORTH      SUNNY     54  35  48 NW21G26   30.25R
BROKEN BOW     SUNNY     61  35  37 N25G33    30.22S
6HR MIN TEMP:  44; 6HR MAX TEMP:  61;

O`NEILL        SUNNY     55  38  53 NW22G31   30.21R
ORD            SUNNY     59  35  40 NW24G32   30.19R
6HR MIN TEMP:  31; 6HR MAX TEMP:  59;

THEDFORD       SUNNY     59  33  37 N23G33    30.26S
$$

NEZ041-046>049-061>064-073>077-083>087-301900-
SOUTH CENTRAL NEBRASKA

CITY           SKY/WX    TMP DP  RH WIND       PRES   REMARKS
GRAND ISLAND   SUNNY     62  35  36 NW25G33   30.18S
6HR MIN TEMP:  38; 6HR MAX TEMP:  63;

AURORA         SUNNY     62  32  32 NW23G30   30.16S
HASTINGS       SUNNY     62  35  36 NW25G35   30.18S
6HR MIN TEMP:  42; 6HR MAX TEMP:  62;

HEBRON         SUNNY     65  34  31 NW17G24   30.14S
HOLDREGE       SUNNY     62  31  30 N23G32    30.21S
KEARNEY *      SUNNY     63  34  34 NW21G31   30.21S
YORK           SUNNY     61  37  41 N22G29    30.14S
$$

NEZ011>018-030>034-042>045-301900-
NORTHEAST NEBRASKA

CITY           SKY/WX    TMP DP  RH WIND       PRES   REMARKS
NORFOLK        SUNNY     57  40  52 N24G30    30.14R
6HR MIN TEMP:  37; 6HR MAX TEMP:  58;

ALBION         SUNNY     57  37  47 NW22G30   30.17R
BLAIR          SUNNY     60  42  50 NW18G25   30.07S
COLUMBUS *       N/A    N/A N/A N/A MISG        N/A
FREMONT        SUNNY     61  41  48 NW17G25   30.11S
TEKAMAH        SUNNY     62  42  47 NW18G29   30.08R
6HR MIN TEMP:  32; 6HR MAX TEMP:  62;

WAYNE          SUNNY     57  40  53 N23G31    30.13R
$$

NEZ050>053-065>068-078-088>093-301900-
SOUTHEAST NEBRASKA

CITY           SKY/WX    TMP DP  RH WIND       PRES   REMARKS
LINCOLN        SUNNY     62  39  42 NW21G28   30.12S
6HR MIN TEMP:  36; 6HR MAX TEMP:  63;

OMAHA EPPLEY   MOSUNNY   60  41  49 N25       30.07S
6HR MIN TEMP:  36; 6HR MAX TEMP:  61;

BEATRICE       SUNNY     63  40  43 NW22G29   30.10F
FALLS CITY     SUNNY     64  40  41 NW21G29   30.05S
6HR MIN TEMP:  41; 6HR MAX TEMP:  64; 6HR PCP: TRACE;

NEBRASKA CITY  SUNNY     62  34  35 NW16G22   30.07S
PLATTSMOUTH    SUNNY     61  37  42 NW22G30   30.06F
$$

NEZ044-045-051>053-067-301900-
OMAHA AREA

CITY           SKY/WX    TMP DP  RH WIND       PRES   REMARKS
OMAHA EPPLEY   MOSUNNY   60  41  49 N25       30.07S
6HR MIN TEMP:  36; 6HR MAX TEMP:  61;

BLAIR          SUNNY     60  42  50 NW18G25   30.07S
FREMONT        SUNNY     61  41  48 NW17G25   30.11S
MILLARD        SUNNY     61  42  50 NW21G28   30.08S
OFFUTT AFB     SUNNY     62  42  47 NW20G25   30.06S
PLATTSMOUTH    SUNNY     61  37  42 NW22G30   30.06F
WAHOO          FAIR      61  38  41 NW15G25   30.10S
$$



USA.gov is the U.S. government's official web portal to all federal, state and local government web resources and services.